This is the latest recevied weather packets stored in our database for station/object SP9MUF-14. If no packets are shown the sender has not sent any weather packets the latest 10 day(s).
| Time | Temp. | Humidity | Pressure | Rain* | Wind** | Luminosity | Snow |
|---|---|---|---|---|---|---|---|
| 1787470890 | 16.67° C | 64% | 1021.4 hPa | 0 mm | - | 434 W/m² | - |
| 1787470587 | 16.67° C | 65% | 1021.5 hPa | 0 mm | - | 414 W/m² | - |
| 1787470285 | 16.67° C | 63% | 1021.4 hPa | 0 mm | - | 411 W/m² | - |
| 1787469982 | 16.67° C | 65% | 1021.4 hPa | 0 mm | - | 393 W/m² | - |
| 1787469680 | 16.67° C | 65% | 1021.3 hPa | 0 mm | - | 379 W/m² | - |
| 1787469378 | 16.67° C | 65% | 1021.5 hPa | 0 mm | - | 367 W/m² | - |
| 1787469075 | 16.67° C | 66% | 1021.4 hPa | 0 mm | - | 348 W/m² | - |
| 1787468773 | 15.56° C | 65% | 1021.4 hPa | 0 mm | - | 49 W/m² | - |
| 1787468471 | 15.56° C | 65% | 1021.3 hPa | 0 mm | - | 48 W/m² | - |
| 1787468168 | 15.56° C | 68% | 1021.5 hPa | 0 mm | - | 47 W/m² | - |
| 1787467866 | 15.56° C | 67% | 1021.5 hPa | 0 mm | - | 46 W/m² | - |
| 1787467564 | 15.56° C | 68% | 1021.5 hPa | 0 mm | - | 44 W/m² | - |
| 1787467261 | 15.56° C | 68% | 1021.4 hPa | 0 mm | - | 43 W/m² | - |
| 1787466657 | 15.56° C | 68% | 1021.4 hPa | 0 mm | - | 41 W/m² | - |
| 1787466354 | 15.56° C | 69% | 1021.4 hPa | 0 mm | - | 40 W/m² | - |
| 1787466052 | 15° C | 71% | 1021.3 hPa | 0 mm | - | 39 W/m² | - |
| 1787465750 | 15° C | 73% | 1021.4 hPa | 0 mm | - | 39 W/m² | - |
| 1787465448 | 15° C | 73% | 1021.4 hPa | 0 mm | - | 38 W/m² | - |
| 1787465145 | 15° C | 75% | 1021.4 hPa | 0 mm | - | 37 W/m² | - |
| 1787464843 | 13.89° C | 76% | 1021.3 hPa | 0 mm | - | 36 W/m² | - |
| 1787464238 | 13.89° C | 80% | 1021.4 hPa | 0 mm | - | 34 W/m² | - |
| 1787463936 | 13.89° C | 79% | 1021.4 hPa | 0 mm | - | 33 W/m² | - |
| 1787463331 | 12.78° C | 82% | 1021.3 hPa | 0 mm | - | 30 W/m² | - |
| 1787463029 | 12.78° C | 82% | 1021.4 hPa | 0 mm | - | 29 W/m² | - |
| 1787462727 | 12.78° C | 83% | 1021.3 hPa | 0 mm | - | 28 W/m² | - |
* Rain latest hour (hover to see other rain measurements)
** Current wind speed in m/s (hover to see current wind gust speed)